1497560400.06,61502,19.75,74122.8,1.39,-22.47,-22.07,0,*72
1497560401.27,61503,19.75,74118.0,1.39,-22.11,-22.27,0,*72
1497560402.47,61504,19.75,74118.3,1.39,-22.07,-22.63,0,*72
1497560403.68,61505,19.75,74118.5,1.39,-22.11,-23.09,0,*79
1497560404.88,61506,19.75,74120.5,1.39,-22.11,-23.39,0,*79
1497560406.11,61507,19.75,74124.8,1.39,-22.21,-23.59,0,*7D
1497560407.31,61508,19.75,74122.3,1.39,-22.27,-23.75,0,*7A
1497560408.56,61509,19.75,74130.5,1.35,-22.47,-24.11,0,*74
1497560409.81,61510,19.75,74130.0,1.35,-22.77,-24.25,0,*78
1497560411.01,61511,19.75,74128.8,1.35,-23.09,-24.35,0,*70
1497560412.26,61512,19.75,74128.8,1.35,-23.23,-24.41,0,*78
1497560413.47,61513,19.75,74128.3,1.37,-23.39,-24.35,0,*73
1497560414.72,61514,19.75,74134.8,1.37,-23.39,-24.21,0,*71
1497560415.97,61515,19.75,74130.0,1.35,-23.49,-24.25,0,*71
1497560417.19,61516,19.75,74132.8,1.35,-23.59,-24.11,0,*74
1497560418.39,61517,19.75,74130.8,1.35,-23.75,-23.89,0,*7D
1497560419.62,61518,19.75,74128.8,1.35,-23.79,-23.65,0,*7C
1497560420.82,61519,19.75,74130.5,1.35,-23.75,-23.39,0,*78
1497560422.08,61520,19.75,74130.5,1.33,-23.69,-23.29,0,*78
1497560423.33,61521,19.75,74128.8,1.33,-23.65,-23.13,0,*7C
1497560424.61,61522,19.75,74134.0,1.33,-23.33,-23.03,0,*7D
1497560425.86,61523,19.75,74130.5,1.33,-23.03,-23.13,0,*7E
1497560427.1,61524,19.75,74134.0,1.33,-22.87,-23.29,0,*7D
1497560428.35,61525,19.75,74136.5,1.33,-22.87,-23.65,0,*74
1497560429.56,61526,19.75,74136.0,1.33,-22.87,-23.79,0,*7A
1497560430.78,61527,19.75,74138.0,1.31,-22.87,-24.11,0,*70
1497560432.03,61528,19.75,74132.0,1.33,-23.03,-24.47,0,*73
1497560433.26,61529,19.75,74128.5,1.31,-23.19,-24.61,0,*7F
1497560434.51,61530,19.75,74130.5,1.31,-23.19,-24.67,0,*71
1497560435.74,61531,19.75,74126.5,1.31,-23.29,-24.77,0,*72
1497560436.99,61532,19.75,74126.5,1.31,-23.33,-24.83,0,*71
1497560438.25,61533,19.75,74124.0,1.31,-23.53,-24.83,0,*76
1497560439.47,61534,19.75,74124.3,1.31,-23.69,-24.93,0,*79
1497560440.69,61535,19.75,74124.0,1.31,-23.69,-24.93,0,*78
1497560441.89,61536,19.75,74126.0,1.31,-23.79,-24.93,0,*7A
1497560443.11,61537,19.75,74126.3,1.31,-23.85,-24.93,0,*78
1497560444.34,61538,19.75,74130.5,1.31,-23.95,-24.93,0,*76
1497560445.57,61539,19.75,74130.5,1.31,-23.99,-24.93,0,*7B
1497560446.8,61540,19.75,74128.3,1.31,-24.11,-24.93,0,*72
1497560448.02,61541,19.75,74124.0,1.31,-24.15,-24.97,0,*73
1497560449.25,61542,19.75,74128.3,1.31,-24.15,-24.97,0,*70
1497560450.48,61543,19.75,74128.0,1.31,-24.25,-25.13,0,*7F
1497560451.74,61544,19.75,74130.3,1.29,-24.35,-25.29,0,*79
1497560452.99,61545,19.75,74132.5,1.29,-24.57,-25.45,0,*76
1497560454.25,61546,19.75,74130.3,1.29,-24.47,-25.29,0,*7E
1497560455.49,61547,19.75,74134.0,1.31,-24.41,-25.23,0,*7A
1497560456.71,61548,19.75,74134.5,1.27,-24.57,-25.45,0,*75
1497560457.97,61549,19.75,74126.8,1.29,-24.67,-25.49,0,*75
1497560459.22,61550,19.75,74128.0,1.29,-24.57,-25.45,0,*72
1497560460.48,61551,19.75,74128.8,1.29,-24.67,-25.49,0,*7C
1497560461.73,61552,19.75,74126.8,1.27,-24.71,-25.61,0,*7C
1497560462.97,61553,19.75,74124.0,1.27,-24.71,-25.49,0,*77
1497560464.22,61554,19.75,74124.0,1.27,-24.71,-25.61,0,*7A
1497560465.45,61555,19.75,74128.3,1.27,-24.67,-25.61,0,*7C
1497560466.69,61556,19.75,74126.5,1.27,-24.71,-25.61,0,*78
1497560467.94,61557,19.75,74122.3,1.27,-24.71,-25.61,0,*79
1497560469.17,61558,19.75,74124.3,1.25,-24.61,-25.49,0,*7F
1497560470.4,61559,19.75,74120.3,1.25,-24.61,-25.39,0,*79
1497560471.64,61560,19.75,74124.5,1.25,-24.51,-25.19,0,*72
1497560472.87,61561,19.75,74124.8,1.25,-24.51,-25.23,0,*7A
1497560474.1,61562,19.75,74130.5,1.25,-24.51,-25.35,0,*7E
1497560475.34,61563,19.75,74126.5,1.27,-24.47,-25.03,0,*7F
1497560476.57,61564,19.75,74128.5,1.27,-24.35,-24.87,0,*70
1497560477.79,61565,19.75,74130.0,1.25,-24.57,-24.93,0,*72
1497560479.04,61566,19.75,74128.5,1.27,-24.67,-24.83,0,*71
1497560480.3,61567,19.75,74128.8,1.25,-24.61,-24.71,0,*79
1497560481.56,61568,19.75,74130.5,1.25,-24.71,-24.51,0,*75
1497560482.82,61569,19.75,74128.3,1.23,-24.71,-24.11,0,*76
1497560484.02,61570,19.75,74130.0,1.23,-24.61,-23.89,0,*79
1497560485.25,61571,19.75,74130.0,1.25,-24.57,-23.39,0,*70
1497560486.48,61572,19.75,74128.8,1.25,-24.51,-22.93,0,*74
1497560487.69,61573,19.75,74132.3,1.23,-24.35,-22.57,0,*79
1497560488.94,61574,19.75,74132.0,1.25,-24.35,-21.97,0,*77
1497560490.18,61575,19.75,74134.8,1.23,-24.35,-21.53,0,*78
1497560491.42,61576,19.75,74132.3,1.23,-24.21,-20.89,0,*78
1497560492.68,61577,19.75,74132.3,1.25,-24.11,-20.29,0,*76
1497560493.89,61578,19.75,74132.8,1.23,-23.75,-19.37,0,*7F
1497560495.13,61579,19.75,74134.8,1.23,-23.53,-18.73,0,*7B
1497560496.33,61580,19.75,74132.0,1.23,-23.39,-18.11,0,*75
1497560497.53,61581,19.75,74128.0,1.23,-23.13,-17.49,0,*7E
1497560498.76,61582,19.75,74130.0,1.23,-22.67,-16.69,0,*7C
1497560500.02,61583,19.75,74132.0,1.25,-22.31,-15.71,0,*72
1497560501.3,61584,19.75,74130.3,1.25,-21.83,-14.83,0,*73
1497560502.57,61585,19.75,74130.3,1.25,-21.03,-14.01,0,*70
1497560503.8,61586,19.75,74132.3,1.23,-20.25,-13.29,0,*7D
1497560505.05,61587,19.75,74132.5,1.25,-19.17,-12.57,0,*79
1497560506.28,61588,19.75,74126.8,1.25,-18.73,-12.43,0,*70
1497560507.51,61589,19.75,74126.5,1.25,-18.17,-12.21,0,*77
1497560508.76,61590,19.75,74130.5,1.23,-17.63,-11.85,0,*78
1497560510.04,61591,19.75,74130.0,1.25,-17.21,-11.85,0,*79
1497560511.28,61592,19.75,74130.8,1.25,-16.97,-11.73,0,*7F
1497560512.51,61593,19.75,74132.3,1.27,-16.55,-11.33,0,*76
1497560513.79,61594,19.75,74130.3,1.25,-16.17,-11.07,0,*72
1497560515.04,61595,19.75,74128.5,1.25,-15.57,-10.49,0,*7F
1497560516.24,61596,19.75,74130.5,1.23,-15.15,-9.97,0,*47
1497560517.5,61597,19.75,74124.3,1.27,-14.51,-9.53,0,*4B
1497560518.74,61598,19.75,74126.8,1.27,-13.87,-8.81,0,*46
1497560519.98,61599,19.75,74130.3,1.29,-13.37,-8.25,0,*4C
1497560521.23,61600,19.75,74130.3,1.27,-12.83,-7.77,0,*47
1497560522.48,61601,19.75,74128.5,1.27,-12.53,-7.57,0,*49
1497560523.73,61602,19.75,74132.3,1.29,-12.25,-7.31,0,*45
1497560525.0,61603,19.75,74130.5,1.29,-11.67,-6.97,0,*4C
1497560526.22,61604,19.75,74130.0,1.29,-11.11,-6.69,0,*4B
1497560527.44,61605,19.75,74128.5,1.29,-10.35,-6.43,0,*45
1497560528.67,61606,19.75,74128.8,1.29,-9.93,-6.63,0,*70
1497560529.92,61607,19.75,74130.8,1.29,-9.41,-6.85,0,*76
1497560531.15,61608,19.75,74128.5,1.29,-8.85,-7.11,0,*7C
1497560532.36,61609,19.75,74130.0,1.31,-8.37,-7.31,0,*7F
1497560533.6,61610,19.75,74128.8,1.33,-7.87,-7.57,0,*71
1497560534.83,61611,19.75,74128.3,1.31,-7.73,-7.87,0,*74
1497560536.05,61612,19.75,74128.8,1.31,-7.57,-8.21,0,*72
1497560537.26,61613,19.75,74128.0,1.31,-7.43,-8.63,0,*70
1497560538.48,61614,19.75,74126.3,1.33,-7.53,-8.93,0,*7B
1497560539.71,61615,19.75,74130.8,1.33,-7.69,-9.31,0,*7A
1497560540.97,61616,19.75,74130.0,1.33,-7.95,-9.57,0,*7A
1497560542.18,61617,19.75,74132.3,1.33,-8.21,-9.71,0,*7F
1497560543.4,61618,19.75,74134.0,1.33,-8.37,-9.75,0,*73
1497560544.62,61619,19.75,74130.0,1.33,-8.67,-10.01,0,*4C
1497560545.85,61620,19.75,74132.0,1.33,-9.19,-10.53,0,*49
1497560547.07,61621,19.75,74128.5,1.35,-9.67,-10.75,0,*43
1497560548.29,61622,19.75,74134.8,1.35,-10.09,-10.79,0,*7C
1497560549.54,61623,19.75,74130.5,1.35,-10.75,-10.75,0,*7A
1497560550.77,61624,19.75,74128.0,1.35,-11.11,-10.67,0,*7D
1497560552.05,61625,19.75,74130.0,1.37,-11.33,-10.63,0,*7A
1497560553.3,61626,19.75,74124.8,1.37,-11.55,-10.57,0,*7E
1497560554.59,61627,19.75,74130.0,1.37,-11.59,-10.67,0,*70
1497560555.81,61628,19.75,74126.5,1.35,-11.73,-10.89,0,*75
1497560557.09,61629,19.75,74124.3,1.37,-11.59,-11.07,0,*79
1497560558.34,61630,19.75,74124.3,1.35,-11.63,-11.77,0,*7D
1497560559.56,61631,19.75,74126.0,1.35,-11.73,-12.21,0,*7D
1497560560.81,61632,19.75,74124.5,1.37,-11.85,-12.89,0,*77
1497560562.04,61633,19.75,74130.3,1.37,-12.39,-13.51,0,*76
1497560563.27,61634,19.75,74128.5,1.35,-12.93,-14.01,0,*71
1497560564.46,61635,19.75,74128.8,1.35,-13.47,-14.29,0,*72
1497560565.68,61636,19.75,74130.0,1.35,-14.19,-14.43,0,*71
1497560566.94,61637,19.75,74128.3,1.35,-14.75,-14.47,0,*7E
1497560568.16,61638,19.75,74128.3,1.37,-15.15,-14.29,0,*7C
1497560569.38,61639,19.75,74130.5,1.35,-15.49,-14.05,0,*78
1497560570.6,61640,19.75,74130.5,1.35,-15.49,-13.79,0,*7A
1497560571.82,61641,19.75,74130.3,1.37,-15.75,-13.73,0,*7C
1497560573.09,61642,19.75,74130.5,1.37,-15.89,-13.83,0,*73
1497560574.34,61643,19.75,74132.8,1.37,-15.89,-13.73,0,*7D
1497560575.59,61644,19.75,74130.3,1.37,-16.27,-13.69,0,*76
1497560576.81,61645,19.75,74132.5,1.37,-16.45,-13.51,0,*78
1497560578.06,61646,19.75,74132.5,1.37,-16.59,-13.01,0,*73
1497560579.32,61647,19.75,74134.8,1.37,-16.75,-12.71,0,*7A
1497560580.52,61648,19.75,74132.0,1.35,-16.79,-12.43,0,*7A
1497560581.8,61649,19.75,74132.0,1.37,-16.51,-12.11,0,*74
1497560583.02,61650,19.75,74134.3,1.35,-16.45,-11.73,0,*7C
1497560584.3,61651,19.75,74134.5,1.37,-16.13,-11.29,0,*73
1497560585.55,61652,19.75,74132.3,1.37,-15.75,-10.71,0,*7F
1497560586.78,61653,19.75,74134.0,1.37,-15.29,-10.23,0,*70
1497560588.0,61654,19.75,74132.8,1.37,-14.69,-9.79,0,*45
1497560589.21,61655,19.75,74130.3,1.35,-14.33,-9.41,0,*42
1497560590.46,61656,19.75,74130.0,1.37,-13.83,-8.97,0,*45
1497560591.68,61657,19.75,74124.0,1.37,-13.23,-8.59,0,*4C
1497560592.87,61658,19.75,74124.0,1.35,-12.89,-8.63,0,*49
1497560594.06,61659,19.75,74126.0,1.35,-12.43,-8.59,0,*47
1497560595.27,61660,19.75,74128.0,1.35,-11.85,-8.41,0,*4D
1497560596.52,61661,19.75,74126.8,1.37,-11.33,-8.45,0,*47
1497560597.73,61662,19.75,74132.0,1.37,-10.97,-8.67,0,*4B
1497560598.95,61663,19.75,74130.0,1.35,-10.67,-8.71,0,*40
1497560600.17,61664,19.75,74130.0,1.37,-10.19,-8.59,0,*46
1497560601.38,61665,19.75,74134.8,1.37,-9.79,-8.67,0,*74
1497560602.61,61666,19.75,74126.0,1.37,-9.61,-8.71,0,*79
1497560603.83,61667,19.75,74128.5,1.37,-9.27,-8.93,0,*76
1497560605.1,61668,19.75,74134.0,1.37,-9.11,-9.11,0,*77
1497560606.31,61669,19.75,74130.3,1.37,-9.05,-9.27,0,*76
1497560607.56,61670,19.75,74132.5,1.37,-9.19,-9.41,0,*73
1497560608.83,61671,19.75,74132.8,1.37,-9.37,-9.49,0,*76
1497560610.03,61672,19.75,74136.5,1.37,-9.89,-9.79,0,*73
1497560611.26,61673,19.75,74134.5,1.37,-10.31,-9.93,0,*4D
1497560612.48,61674,19.75,74132.8,1.37,-10.85,-9.93,0,*45
1497560613.75,61675,19.75,74136.3,1.37,-11.07,-9.61,0,*42
1497560615.0,61676,19.75,74134.8,1.37,-11.15,-9.37,0,*41
1497560616.22,61677,19.75,74130.0,1.37,-11.01,-9.23,0,*40
1497560617.43,61678,19.75,74130.3,1.37,-10.85,-9.27,0,*46
1497560618.63,61679,19.75,74132.8,1.39,-10.49,-9.67,0,*4D
1497560619.84,61680,19.75,74132.3,1.39,-10.23,-10.19,0,*76
1497560621.08,61681,19.75,74132.8,1.43,-10.15,-10.97,0,*79
1497560622.31,61682,19.75,74134.3,1.39,-10.35,-11.85,0,*77
1497560623.57,61683,19.75,74132.5,1.39,-10.63,-12.79,0,*75
1497560624.81,61684,19.75,74132.8,1.39,-11.01,-13.29,0,*73
1497560626.03,61685,19.75,74132.5,1.39,-11.73,-13.73,0,*78
1497560627.25,61686,19.75,74136.0,1.39,-12.43,-13.87,0,*70
1497560628.48,61687,19.75,74130.3,1.39,-13.01,-13.73,0,*7D
1497560629.71,61688,19.75,74132.8,1.37,-13.51,-13.23,0,*7C
1497560630.94,61689,19.75,74132.3,1.35,-13.51,-12.65,0,*7C
1497560632.22,61690,19.75,74128.3,1.37,-13.29,-12.11,0,*7A
1497560633.45,61691,19.75,74130.5,1.39,-12.97,-12.15,0,*75
1497560634.68,61692,19.75,74130.8,1.39,-12.53,-12.43,0,*7D
1497560635.93,61693,19.75,74128.0,1.35,-12.35,-12.83,0,*7C
1497560637.18,61694,19.75,74128.8,1.37,-12.11,-13.23,0,*74
1497560638.45,61695,19.75,74130.5,1.37,-11.85,-13.83,0,*71
1497560639.7,61696,19.75,74128.5,1.37,-11.85,-14.69,0,*71
1497560640.93,61697,19.75,74132.0,1.37,-12.25,-16.03,0,*77
1497560642.21,61698,19.75,74132.8,1.37,-13.01,-17.07,0,*7A
1497560643.47,61699,19.75,74130.3,1.37,-14.11,-17.63,0,*7F
1497560644.71,61700,19.75,74134.3,1.37,-15.11,-17.93,0,*70
1497560645.98,61701,19.75,74128.5,1.37,-16.17,-17.93,0,*74
1497560647.26,61702,19.75,74132.8,1.37,-17.21,-17.79,0,*77
1497560648.52,61703,19.75,74128.3,1.39,-17.97,-17.55,0,*7B
1497560649.75,61704,19.75,74130.3,1.39,-18.89,-17.35,0,*7A
1497560650.99,61705,19.75,74130.3,1.39,-19.37,-17.03,0,*7A
1497560652.23,61706,19.75,74128.8,1.39,-19.61,-16.59,0,*74
1497560653.51,61707,19.75,74128.5,1.37,-19.61,-16.13,0,*75
1497560654.75,61708,19.75,74130.8,1.37,-19.37,-15.75,0,*7A
1497560655.97,61709,19.75,74130.3,1.37,-18.99,-15.63,0,*79
1497560657.18,61710,19.75,74132.0,1.35,-18.65,-15.49,0,*78
1497560658.41,61711,19.75,74132.5,1.37,-18.11,-15.63,0,*70
1497560659.66,61712,19.75,74132.5,1.39,-17.63,-16.17,0,*77
1497560660.91,61713,19.75,74128.8,1.35,-17.59,-16.69,0,*7A
1497560662.2,61714,19.75,74134.5,1.37,-17.45,-17.07,0,*7B
1497560663.45,61715,19.75,74132.0,1.35,-17.59,-17.59,0,*7E
1497560664.7,61716,19.75,74134.8,1.37,-17.83,-17.63,0,*71
1497560665.93,61717,19.75,74132.3,1.37,-18.21,-17.83,0,*79
1497560667.2,61718,19.75,74132.5,1.37,-18.35,-17.93,0,*72
1497560668.45,61719,19.75,74134.0,1.37,-18.45,-17.93,0,*74
1497560669.73,61720,19.75,74136.3,1.37,-18.59,-17.97,0,*77
1497560670.98,61721,19.75,74132.0,1.37,-18.83,-17.97,0,*71
1497560672.24,61722,19.75,74134.5,1.35,-18.93,-17.97,0,*71
1497560673.47,61723,19.75,74134.3,1.37,-18.99,-17.69,0,*79
1497560674.72,61724,19.75,74132.5,1.37,-18.83,-17.55,0,*7A
1497560675.92,61725,19.75,74132.3,1.35,-18.73,-17.49,0,*7B
1497560677.14,61726,19.75,74136.5,1.37,-18.45,-17.31,0,*70
1497560678.36,61727,19.75,74132.5,1.35,-18.25,-17.41,0,*72
1497560679.64,61728,19.75,74134.3,1.37,-17.93,-17.63,0,*7D
1497560680.89,61729,19.75,74130.0,1.37,-17.83,-17.79,0,*76
1497560682.16,61730,19.75,74130.0,1.37,-17.93,-17.93,0,*7B
1497560683.39,61731,19.75,74134.5,1.37,-18.11,-18.07,0,*7D
1497560684.62,61732,19.75,74134.0,1.37,-18.21,-18.07,0,*7D
1497560685.89,61733,19.75,74134.8,1.37,-18.55,-18.01,0,*79
1497560687.09,61734,19.75,74128.0,1.35,-19.03,-17.69,0,*7F
1497560688.37,61735,19.75,74128.5,1.37,-19.27,-17.17,0,*73
1497560689.61,61736,19.75,74128.3,1.37,-19.37,-16.41,0,*73
1497560690.81,61737,19.75,74132.0,1.35,-19.37,-15.75,0,*74
1497560692.04,61738,19.75,74132.0,1.35,-19.23,-15.15,0,*78
1497560693.27,61739,19.75,74128.5,1.35,-18.79,-14.55,0,*72
1497560694.52,61740,19.75,74132.3,1.37,-18.11,-13.97,0,*79
1497560695.75,61741,19.75,74132.8,1.37,-17.49,-13.65,0,*77
1497560697.0,61742,19.75,74130.5,1.37,-17.03,-13.55,0,*79
1497560698.24,61743,19.75,74130.8,1.37,-16.31,-13.43,0,*7F
1497560699.46,61744,19.75,74128.5,1.35,-15.81,-13.43,0,*72
1497560700.7,61745,19.75,74130.5,1.37,-15.43,-13.55,0,*78
1497560701.89,61746,19.75,74128.0,1.35,-15.07,-13.69,0,*76
1497560703.17,61747,19.75,74130.8,1.37,-14.97,-13.97,0,*7C
1497560704.39,61748,19.75,74132.0,1.35,-14.79,-14.19,0,*70
1497560705.63,61749,19.75,74130.8,1.35,-14.55,-14.43,0,*70
1497560706.86,61750,19.75,74134.8,1.35,-14.37,-14.55,0,*7B
1497560708.09,61751,19.75,74130.5,1.37,-14.23,-14.69,0,*72
1497560709.31,61752,19.75,74132.0,1.35,-14.29,-14.93,0,*7C
1497560710.55,61753,19.75,74134.3,1.37,-14.23,-14.89,0,*7E
1497560711.76,61754,19.75,74130.0,1.35,-14.23,-14.89,0,*7B
1497560712.99,61755,19.75,74134.5,1.37,-14.11,-14.89,0,*79
1497560714.25,61756,19.75,74134.8,1.37,-14.01,-14.89,0,*7B
1497560715.51,61757,19.75,74130.8,1.37,-14.01,-14.89,0,*7A
1497560716.8,61758,19.75,74130.5,1.37,-13.97,-14.83,0,*77
1497560718.06,61759,19.75,74132.0,1.35,-13.97,-14.79,0,*71
1497560719.34,61760,19.75,74132.3,1.37,-13.83,-14.75,0,*70
1497560720.56,61761,19.75,74132.0,1.37,-13.69,-14.69,0,*78
1497560721.79,61762,19.75,74132.5,1.39,-13.43,-14.83,0,*79
1497560723.04,61763,19.75,74132.0,1.35,-13.33,-14.79,0,*76
1497560724.29,61764,19.75,74132.5,1.37,-13.11,-15.01,0,*7D
1497560725.55,61765,19.75,74132.8,1.37,-12.83,-15.25,0,*70
1497560726.8,61766,19.75,74128.8,1.37,-12.83,-15.53,0,*72
1497560728.08,61767,19.75,74128.8,1.37,-12.71,-15.89,0,*79
1497560729.35,61768,19.75,74132.3,1.37,-12.65,-16.31,0,*73
1497560730.6,61769,19.75,74130.5,1.37,-12.57,-16.89,0,*70
1497560731.85,61770,19.75,74132.0,1.35,-12.57,-17.25,0,*7D
1497560733.08,61771,19.75,74132.5,1.37,-12.29,-17.69,0,*7F
1497560734.3,61772,19.75,74132.8,1.37,-12.43,-18.41,0,*75
1497560735.54,61773,19.75,74134.5,1.35,-12.61,-18.93,0,*79
1497560736.79,61774,19.75,74134.5,1.37,-12.89,-19.65,0,*72
1497560738.07,61775,19.75,74132.8,1.37,-13.29,-20.19,0,*79
1497560739.35,61776,19.75,74134.5,1.37,-13.87,-20.83,0,*7D
1497560740.58,61777,19.75,74132.0,1.37,-14.37,-21.13,0,*78
1497560741.8,61778,19.75,74132.3,1.39,-15.01,-21.63,0,*7A
1497560743.04,61779,19.75,74136.3,1.37,-15.57,-21.77,0,*73
1497560744.24,61780,19.75,74132.0,1.35,-15.95,-22.03,0,*79
1497560745.5,61781,19.75,74136.3,1.37,-16.17,-21.93,0,*79
1497560746.7,61782,19.75,74138.8,1.35,-16.37,-22.11,0,*73
1497560747.92,61783,19.75,74136.3,1.37,-16.75,-22.41,0,*73
1497560749.15,61784,19.75,74136.5,1.37,-17.35,-22.57,0,*76
1497560750.4,61785,19.75,74138.0,1.37,-17.93,-22.63,0,*7C
1497560751.65,61786,19.75,74134.0,1.37,-18.59,-22.83,0,*78
1497560752.85,61787,19.75,74142.0,1.35,-19.51,-22.83,0,*72
1497560754.07,61788,19.75,74136.3,1.37,-20.09,-22.41,0,*76
1497560755.31,61789,19.75,74136.3,1.35,-20.79,-21.97,0,*7A
1497560756.53,61790,19.75,74138.5,1.35,-21.33,-21.43,0,*74
1497560757.77,61791,19.75,74138.8,1.35,-21.67,-20.59,0,*7E
1497560759.0,61792,19.75,74140.3,1.35,-21.87,-19.95,0,*79
1497560760.21,61793,19.75,74132.8,1.35,-21.83,-19.07,0,*77
1497560761.43,61794,19.75,74132.0,1.35,-21.23,-18.25,0,*7B
1497560762.68,61795,19.75,74132.0,1.37,-20.39,-17.63,0,*7F
1497560763.96,61796,19.75,74134.3,1.37,-19.61,-17.45,0,*7F
1497560765.19,61797,19.75,74138.0,1.37,-19.03,-17.49,0,*76
1497560766.42,61798,19.75,74138.0,1.37,-18.41,-17.83,0,*78
1497560767.64,61799,19.75,74134.5,1.35,-17.97,-18.25,0,*7C
1497560768.87,61800,19.69,74132.3,1.35,-17.97,-18.73,0,*70
1497560770.07,61801,19.75,74136.0,1.35,-18.25,-18.73,0,*77
1497560771.27,61802,19.75,74136.0,1.35,-18.49,-18.73,0,*7E
1497560772.47,61803,19.75,74128.5,1.35,-18.25,-18.45,0,*70
1497560773.67,61804,19.75,74130.8,1.35,-17.83,-18.49,0,*78
1497560774.88,61805,19.69,74126.5,1.35,-17.73,-18.89,0,*7A
1497560776.11,61806,19.69,74126.8,1.35,-17.73,-19.41,0,*7C
1497560777.36,61807,19.75,74128.0,1.37,-18.07,-19.81,0,*7F
1497560778.56,61808,19.75,74126.0,1.35,-18.25,-20.09,0,*78
1497560779.79,61809,19.75,74126.8,1.37,-18.45,-20.25,0,*73
1497560781.02,61810,19.75,74126.8,1.35,-18.59,-20.43,0,*74
1497560782.27,61811,19.75,74124.8,1.33,-18.79,-20.79,0,*78
1497560783.51,61812,19.75,74126.3,1.35,-18.89,-21.03,0,*7E
1497560784.75,61813,19.75,74124.3,1.35,-19.07,-21.23,0,*7A
1497560785.97,61814,19.75,74126.5,1.35,-19.07,-21.33,0,*7C
1497560787.2,61815,19.75,74128.5,1.35,-18.79,-21.33,0,*75
1497560788.44,61816,19.75,74128.8,1.33,-18.55,-21.43,0,*79
1497560789.7,61817,19.69,74126.0,1.35,-18.31,-21.53,0,*7D
1497560790.98,61818,19.75,74132.0,1.33,-18.31,-21.87,0,*7D
1497560792.23,61819,19.75,74132.5,1.33,-18.21,-22.17,0,*77
1497560793.51,61820,19.69,74130.3,1.33,-18.31,-22.21,0,*79
1497560794.74,61821,19.75,74132.3,1.33,-18.49,-22.53,0,*72
1497560796.02,61822,19.75,74134.5,1.33,-18.35,-22.47,0,*7F
1497560797.28,61823,19.75,74136.3,1.33,-18.31,-22.53,0,*7F
1497560798.5,61824,19.75,74134.0,1.33,-18.17,-22.67,0,*7B
1497560799.75,61825,19.75,74132.8,1.33,-18.07,-22.73,0,*7E
1497560801.0,61826,19.75,74138.0,1.33,-18.21,-23.19,0,*74
1497560802.23,61827,19.75,74136.3,1.31,-18.45,-23.85,0,*70
1497560803.48,61828,19.69,74134.8,1.33,-18.65,-24.25,0,*72
1497560804.71,61829,19.75,74136.8,1.33,-18.99,-24.61,0,*70
1497560805.94,61830,19.75,74138.3,1.33,-19.47,-25.09,0,*75
1497560807.19,61831,19.75,74138.0,1.31,-19.85,-25.29,0,*7A
1497560808.44,61832,19.75,74138.0,1.33,-20.35,-25.39,0,*7B
1497560809.64,61833,19.75,74138.0,1.31,-20.69,-25.61,0,*7C
1497560810.88,61834,19.75,74138.3,1.31,-21.27,-25.65,0,*74
1497560812.16,61835,19.69,74134.5,1.33,-21.57,-25.75,0,*71
1497560813.42,61836,19.75,74138.0,1.31,-22.17,-25.75,0,*77
1497560814.63,61837,19.75,74136.0,1.31,-22.37,-25.61,0,*71
1497560815.89,61838,19.75,74134.8,1.33,-22.53,-25.29,0,*72
1497560817.12,61839,19.75,74136.3,1.33,-22.83,-25.09,0,*7C
1497560818.34,61840,19.69,74132.8,1.31,-22.97,-24.67,0,*7C
1497560819.54,61841,19.75,74134.3,1.31,-23.13,-24.31,0,*73
1497560820.77,61842,19.75,74132.0,1.31,-23.43,-23.95,0,*7C
1497560822.0,61843,19.75,74132.0,1.31,-23.43,-23.33,0,*71
1497560823.22,61844,19.69,74128.5,1.29,-23.39,-22.87,0,*7C
1497560824.44,61845,19.75,74130.5,1.27,-23.03,-22.41,0,*70
1497560825.69,61846,19.69,74128.5,1.27,-22.73,-22.21,0,*73
1497560826.97,61847,19.69,74128.8,1.29,-22.21,-21.97,0,*75
1497560828.17,61848,19.69,74130.0,1.27,-21.77,-21.63,0,*7F
1497560829.39,61849,19.69,74128.0,1.27,-21.33,-21.43,0,*7C
1497560830.68,61850,19.75,74134.5,1.29,-20.99,-21.27,0,*79
1497560831.95,61851,19.75,74132.3,1.29,-20.53,-21.03,0,*78
1497560833.16,61852,19.75,74132.5,1.27,-19.95,-20.73,0,*73
1497560834.4,61853,19.69,74132.8,1.29,-19.47,-20.39,0,*7D
1497560835.62,61854,19.69,74132.5,1.29,-19.03,-20.05,0,*75
1497560836.85,61855,19.69,74132.5,1.27,-18.55,-19.91,0,*7F
1497560838.1,61856,19.69,74136.5,1.27,-17.93,-19.65,0,*72
1497560839.35,61857,19.75,74136.0,1.27,-17.79,-19.81,0,*7D
1497560840.61,61858,19.75,74136.8,1.29,-17.45,-19.95,0,*76
1497560841.87,61859,19.69,74132.3,1.27,-17.17,-20.19,0,*70
1497560843.09,61860,19.75,74138.0,1.27,-16.93,-20.53,0,*79
1497560844.32,61861,19.75,74134.8,1.27,-16.93,-20.99,0,*7E
1497560845.55,61862,19.69,74132.8,1.27,-16.89,-21.53,0,*71
1497560846.77,61863,19.69,74136.3,1.27,-16.79,-21.83,0,*72
1497560848.03,61864,19.75,74138.5,1.27,-16.65,-21.97,0,*7D
1497560849.23,61865,19.69,74134.5,1.27,-16.89,-22.63,0,*76
1497560850.51,61866,19.69,74134.0,1.29,-17.03,-23.03,0,*7F
1497560851.76,61867,19.69,74132.5,1.29,-17.49,-23.69,0,*7C
1497560853.0,61868,19.69,74132.3,1.27,-17.93,-24.15,0,*76
1497560854.23,61869,19.75,74138.0,1.27,-18.35,-24.51,0,*74
1497560855.49,61870,19.75,74136.8,1.29,-18.69,-24.71,0,*79
1497560856.74,61871,19.75,74136.5,1.29,-19.17,-24.83,0,*7D
1497560858.02,61872,19.69,74134.3,1.29,-19.61,-24.83,0,*7F
1497560859.27,61873,19.69,74134.0,1.27,-20.19,-24.83,0,*75
1497560860.5,61874,19.75,74140.5,1.27,-20.69,-24.83,0,*75
1497560861.69,61875,19.69,74138.3,1.27,-21.13,-24.35,0,*75
1497560862.93,61876,19.75,74140.5,1.27,-21.47,-24.21,0,*72
1497560864.18,61877,19.75,74140.5,1.27,-21.83,-23.85,0,*72
1497560865.38,61878,19.69,74136.5,1.27,-22.11,-23.39,0,*72
1497560866.61,61879,19.69,74138.0,1.27,-22.37,-22.77,0,*7C
1497560867.83,61880,19.69,74138.5,1.27,-22.63,-22.21,0,*78
1497560869.06,61881,19.75,74140.8,1.27,-22.87,-21.67,0,*72
1497560870.31,61882,19.75,74142.3,1.27,-22.73,-20.99,0,*7A
1497560871.52,61883,19.69,74136.3,1.27,-22.37,-20.25,0,*7C
1497560872.75,61884,19.69,74138.0,1.27,-22.21,-19.91,0,*79
1497560873.97,61885,19.69,74138.5,1.25,-22.11,-19.47,0,*72
1497560875.16,61886,19.69,74134.8,1.27,-22.07,-18.99,0,*76
1497560876.41,61887,19.75,74132.8,1.25,-21.83,-18.21,0,*79
1497560877.64,61888,19.75,74136.5,1.27,-21.53,-17.49,0,*78
1497560878.89,61889,19.69,74134.3,1.25,-21.33,-16.79,0,*7F
1497560880.11,61890,19.69,74134.3,1.27,-20.73,-16.27,0,*7B
1497560881.35,61891,19.69,74134.0,1.29,-19.95,-15.75,0,*72
1497560882.61,61892,19.75,74134.0,1.25,-19.31,-15.49,0,*7C
1497560883.87,61893,19.69,74128.8,1.27,-18.55,-15.39,0,*7B
1497560885.08,61894,19.75,74132.0,1.27,-18.07,-15.29,0,*7A
1497560886.31,61895,19.69,74128.0,1.27,-17.69,-15.39,0,*7D
1497560887.57,61896,19.75,74132.3,1.25,-17.49,-15.57,0,*76
1497560888.84,61897,19.69,74132.0,1.25,-17.11,-15.89,0,*79
1497560890.07,61898,19.69,74130.3,1.27,-16.93,-16.17,0,*7B
1497560891.27,61899,19.69,74130.5,1.27,-16.93,-16.55,0,*7C
1497560892.55,61900,19.69,74128.5,1.25,-17.07,-17.21,0,*71
1497560893.82,61901,19.69,74130.3,1.25,-17.21,-17.55,0,*77
1497560895.06,61902,19.69,74128.5,1.25,-17.35,-17.83,0,*7A
1497560896.31,61903,19.75,74132.0,1.25,-17.35,-18.01,0,*7E
1497560897.53,61904,19.75,74134.5,1.25,-17.69,-18.41,0,*74
1497560898.78,61905,19.75,74134.8,1.25,-17.87,-18.55,0,*70
1497560899.98,61906,19.69,74132.3,1.27,-18.07,-18.49,0,*7B
1497560901.23,61907,19.69,74132.5,1.29,-18.35,-18.41,0,*7D
1497560902.45,61908,19.69,74130.3,1.27,-18.59,-18.25,0,*74
1497560903.66,61909,19.69,74128.3,1.27,-18.69,-18.11,0,*71